Thunderstorms From: 25-05-2018 15:00 Until: 26-05-2018 15:00 warning for: Thunderstorms Level: Yellow info button

Although rather usual in this region, locally or potentially dangerous phenomena are expected. (such as local winds, summer thunderstorms, rising streams or high waves) Be aware and pay attention to the latest weather updates, especially if you carry out activities exposed to weather or close to a stream or shoreline. 


Meteo18 Weather Cam more information Meteo18 Weather Cam


warning for Thunderstorms more information blitzortung!


Rain radar more information rain snow radar


Visit our other weather sites:

Template documentation
and downloads

And another site



Weather Underground History page Text

Daily Summary for October 26, 2016 Units:  Metric    English   Both
« Previous Day
Next Day »
Daily Weekly Monthly Yearly Custom
  High: Low: Average:
Temperature: -17.8 °C -12.4 °C -11.3 °C
Dew Point: -17.8 °C -12.8 °C -12.1 °C
Humidity: Humidity % 79 % 91 %
Wind Speed: 0 km/h 0 km/h 8 km/h
Wind Gust: 0 km/h - -
Wind:- - SE
Pressure: 0 hPa 34726.8 hPa -
Precipitation: 7.62 mm    
Historical Graphs
 
 
Tabular Data for October 26, 2016
Time Temperature Dew Point Pressure Wind Wind Speed Wind Gust Humidity Rainfall Rate (Hourly)
-17.8 °C -17.8 °C 0 hPa Calm     Humidity % 0 mm
00:02 -10.7 °C -11.2 °C 34726.8 hPa North 7.7 km/h 10.3 km/h 94 % 0 mm
00:12 -10.7 °C -11.2 °C 34726.8 hPa North 5.1 km/h 10.3 km/h 94 % 0 mm
00:17 -10.7 °C -11.2 °C 34726.8 hPa North 2.6 km/h 12.9 km/h 94 % 0 mm
00:22 -10.7 °C -11.2 °C 34726.8 hPa Calm   10.3 km/h 94 % 0 mm
00:32 -10.7 °C -11.2 °C 34726.8 hPa North 2.6 km/h 7.7 km/h 94 % 0 mm
00:37 -10.7 °C -11.2 °C 34726.8 hPa Calm   7.7 km/h 94 % 0 mm
00:42 -10.7 °C -11.2 °C 34726.8 hPa Calm   5.1 km/h 94 % 0 mm
00:47 -10.7 °C -11.2 °C 34726.8 hPa North 2.6 km/h 5.1 km/h 94 % 0 mm
00:52 -10.7 °C -11.2 °C 34740.4 hPa Calm   7.7 km/h 94 % 0 mm
00:57 -10.7 °C -11.2 °C 34740.4 hPa Calm   7.7 km/h 94 % 0 mm
01:02 -10.7 °C -11.2 °C 34740.4 hPa North 5.1 km/h 5.1 km/h 94 % 0 mm
01:12 -10.7 °C -11.2 °C 34740.4 hPa North 5.1 km/h 7.7 km/h 94 % 0 mm
01:17 -10.7 °C -11.2 °C 34740.4 hPa NNW 2.6 km/h 7.7 km/h 94 % 0 mm
01:22 -10.7 °C -11.2 °C 34740.4 hPa NNE 2.6 km/h 7.7 km/h 94 % 0 mm
01:27 -10.7 °C -11.2 °C 34740.4 hPa North 2.6 km/h 7.7 km/h 94 % 0 mm
01:32 -10.7 °C -11.2 °C 34740.4 hPa NE 2.6 km/h 7.7 km/h 94 % 0 mm
01:37 -10.7 °C -11.2 °C 34740.4 hPa North 7.7 km/h 15.6 km/h 94 % 0 mm
01:42 -10.7 °C -11.2 °C 34740.4 hPa Calm   15.6 km/h 94 % 0 mm
01:47 -10.7 °C -11.2 °C 34740.4 hPa NNE 10.3 km/h 15.6 km/h 94 % 0 mm
01:52 -10.7 °C -11.1 °C 34740.4 hPa NNE 10.3 km/h 12.9 km/h 95 % 0 mm
01:57 -10.7 °C -11.1 °C 34740.4 hPa Calm   12.9 km/h 95 % 0 mm
02:02 -10.7 °C -11.1 °C 34740.4 hPa ENE 5.1 km/h 12.9 km/h 95 % 0 mm
02:12 -10.7 °C -11.2 °C 34726.8 hPa NE 5.1 km/h 12.9 km/h 95 % 0 mm
02:17 -10.7 °C -11.2 °C 34726.8 hPa NNE 15.6 km/h 15.6 km/h 95 % 0 mm
02:22 -10.7 °C -11.2 °C 34726.8 hPa North 2.6 km/h 18.2 km/h 95 % 0 mm
02:32 -10.7 °C -11.2 °C 34726.8 hPa NNE 5.1 km/h 18.2 km/h 95 % 0 mm
02:37 -10.7 °C -11.2 °C 34726.8 hPa North 7.7 km/h 15.6 km/h 95 % 0 mm
02:42 -10.7 °C -11.2 °C 34726.8 hPa NW 2.6 km/h 15.6 km/h 95 % 0 mm
02:47 -10.8 °C -11.2 °C 34726.8 hPa ENE 7.7 km/h 15.6 km/h 95 % 0 mm
02:52 -10.8 °C -11.2 °C 34726.8 hPa NNE 5.1 km/h 12.9 km/h 95 % 0 mm
02:57 -10.8 °C -11.3 °C 34726.8 hPa Calm   12.9 km/h 95 % 0 mm
03:02 -10.9 °C -11.3 °C 34726.8 hPa ENE 2.6 km/h 15.6 km/h 95 % 0 mm
03:12 -10.9 °C -11.4 °C 34726.8 hPa ENE 5.1 km/h 18.2 km/h 95 % 0 mm
03:17 -11 °C -11.4 °C 34726.8 hPa North 5.1 km/h 20.8 km/h 95 % 0 mm
03:22 -11 °C -11.4 °C 34726.8 hPa NE 7.7 km/h 20.8 km/h 95 % 0 mm
03:27 -11.1 °C -11.5 °C 34726.8 hPa North 2.6 km/h 18.2 km/h 95 % 0 mm
03:32 -11.1 °C -11.4 °C 34726.8 hPa NNE 2.6 km/h 15.6 km/h 96 % 0 mm
03:37 -11.2 °C -11.5 °C 34726.8 hPa NNW 7.7 km/h 12.9 km/h 96 % 0 mm
03:42 -11.2 °C -11.5 °C 34726.8 hPa East 7.7 km/h 12.9 km/h 96 % 0 mm
03:47 -11.2 °C -11.6 °C 34726.8 hPa ENE 2.6 km/h 12.9 km/h 95 % 0 mm
03:52 -11.2 °C -11.6 °C 34726.8 hPa ENE 2.6 km/h 12.9 km/h 96 % 0 mm
03:57 -11.2 °C -11.7 °C 34740.4 hPa NNW 2.6 km/h 12.9 km/h 95 % 0 mm
04:02 -11.2 °C -11.6 °C 34740.4 hPa North 5.1 km/h 12.9 km/h 96 % 0 mm
04:12 -11.3 °C -11.7 °C 34740.4 hPa NNW 2.6 km/h 12.9 km/h 95 % 0 mm
04:17 -11.3 °C -11.6 °C 34726.8 hPa NNE 5.1 km/h 10.3 km/h 96 % 0 mm
04:22 -11.3 °C -11.7 °C 34726.8 hPa NNW 5.1 km/h 15.6 km/h 95 % 0 mm
04:27 -11.3 °C -11.8 °C 34726.8 hPa North 5.1 km/h 15.6 km/h 95 % 0 mm
04:37 -11.3 °C -11.8 °C 34726.8 hPa NNW 5.1 km/h 15.6 km/h 95 % 0 mm
04:42 -11.4 °C -11.9 °C 34726.8 hPa NNW 2.6 km/h 15.6 km/h 95 % 0 mm
04:47 -11.5 °C -11.8 °C 34726.8 hPa NNE 5.1 km/h 10.3 km/h 96 % 0 mm
04:52 -11.5 °C -11.8 °C 34726.8 hPa NNE 10.3 km/h 12.9 km/h 96 % 0 mm
04:57 -11.5 °C -11.8 °C 34726.8 hPa NNE 10.3 km/h 12.9 km/h 96 % 0 mm
05:02 -11.5 °C -11.8 °C 34726.8 hPa NNW 10.3 km/h 15.6 km/h 96 % 0 mm
05:12 -11.6 °C -11.8 °C 34726.8 hPa North 12.9 km/h 20.8 km/h 97 % 0 mm
05:17 -11.6 °C -11.8 °C 34726.8 hPa NNW 7.7 km/h 20.8 km/h 97 % 0 mm
05:22 -11.6 °C -11.9 °C 34740.4 hPa NNE 7.7 km/h 20.8 km/h 97 % 0 mm
05:27 -11.6 °C -11.9 °C 34740.4 hPa NNE 12.9 km/h 20.8 km/h 97 % 0 mm
05:32 -11.6 °C -11.9 °C 34740.4 hPa North 10.3 km/h 18.2 km/h 97 % 0 mm
05:37 -11.7 °C -11.9 °C 34740.4 hPa NNW 2.6 km/h 18.2 km/h 97 % 0 mm
05:42 -11.7 °C -12 °C 34740.4 hPa NNE 12.9 km/h 15.6 km/h 97 % 0 mm
05:47 -11.7 °C -12 °C 34740.4 hPa North 7.7 km/h 15.6 km/h 97 % 0 mm
05:52 -11.8 °C -12.1 °C 34740.4 hPa NNW 10.3 km/h 18.2 km/h 97 % 0 mm
05:57 -11.8 °C -12.1 °C 34740.4 hPa NNE 2.6 km/h 18.2 km/h 97 % 0 mm
06:02 -11.8 °C -12.1 °C 34740.4 hPa NNW 7.7 km/h 23.3 km/h 97 % 0 mm
06:12 -11.9 °C -12.2 °C 34740.4 hPa NE 10.3 km/h 23.3 km/h 97 % 0 mm
06:22 -12.1 °C -12.3 °C 34750.5 hPa NE 7.7 km/h 20.8 km/h 97 % 0 mm
06:27 -12.1 °C -12.3 °C 34750.5 hPa NW 2.6 km/h 20.8 km/h 97 % 0 mm
06:32 -12.1 °C -12.3 °C 34750.5 hPa SE 2.6 km/h 20.8 km/h 97 % 0 mm
06:37 -12.1 °C -12.3 °C 34750.5 hPa NE 5.1 km/h 31.1 km/h 97 % 0 mm
06:42 -12.1 °C -12.3 °C 34750.5 hPa North 15.6 km/h 31.1 km/h 97 % 0 mm
06:47 -12.1 °C -12.4 °C 34750.5 hPa NNE 7.7 km/h 31.1 km/h 97 % 0 mm
06:52 -12.1 °C -12.4 °C 34750.5 hPa ENE 2.6 km/h 20.8 km/h 97 % 0 mm
07:02 -12.1 °C -12.4 °C 34760.7 hPa NNW 10.3 km/h 20.8 km/h 97 % 0 mm
07:07 -12.1 °C -12.4 °C 34760.7 hPa NNW 12.9 km/h 20.8 km/h 97 % 0 mm
07:17 -12.2 °C -12.4 °C 34760.7 hPa North 5.1 km/h 23.3 km/h 97 % 0 mm
07:22 -12.2 °C -12.4 °C 34760.7 hPa NNE 12.9 km/h 18.2 km/h 97 % 0 mm
07:32 -12.2 °C -12.4 °C 34760.7 hPa NE 5.1 km/h 18.2 km/h 97 % 7.62 mm
07:47 -12.2 °C -12.5 °C 34760.7 hPa NW 5.1 km/h 18.2 km/h 97 % 7.62 mm
07:52 -12.2 °C -12.5 °C 34760.7 hPa North 2.6 km/h 10.3 km/h 97 % 7.62 mm
07:57 -12.3 °C -12.6 °C 34760.7 hPa North 7.7 km/h 10.3 km/h 97 % 7.62 mm
08:02 -12.3 °C -12.6 °C 34774.2 hPa North 5.1 km/h 10.3 km/h 97 % 7.62 mm
08:07 -12.3 °C -12.6 °C 34774.2 hPa NNW 2.6 km/h 10.3 km/h 97 % 7.62 mm
08:12 -12.3 °C -12.6 °C 34774.2 hPa North 7.7 km/h 10.3 km/h 97 % 7.62 mm
08:17 -12.3 °C -12.6 °C 34774.2 hPa North 2.6 km/h 10.3 km/h 97 % 7.62 mm
08:27 -12.4 °C -12.7 °C 34784.4 hPa NNE 7.7 km/h 12.9 km/h 97 % 7.62 mm
08:37 -12.4 °C -12.7 °C 34784.4 hPa North 7.7 km/h 15.6 km/h 97 % 0 mm
08:42 -12.3 °C -12.6 °C 34784.4 hPa North 10.3 km/h 18.2 km/h 97 % 0 mm
08:47 -12.3 °C -12.6 °C 34784.4 hPa NNW 5.1 km/h 18.2 km/h 97 % 0 mm
08:52 -12.3 °C -12.6 °C 34784.4 hPa North 2.6 km/h 15.6 km/h 97 % 0 mm
08:57 -12.2 °C -12.5 °C 34797.9 hPa North 2.6 km/h 15.6 km/h 97 % 0 mm
09:02 -12.2 °C -12.5 °C 34797.9 hPa North 2.6 km/h 15.6 km/h 97 % 0 mm
09:12 -12.2 °C -12.4 °C 34797.9 hPa NNW 5.1 km/h 10.3 km/h 97 % 0 mm
09:17 -12.2 °C -12.5 °C 34797.9 hPa NE 5.1 km/h 10.3 km/h 96 % 0 mm
09:22 -12.1 °C -12.4 °C 34797.9 hPa Calm   15.6 km/h 96 % 0 mm
09:32 -12.1 °C -12.6 °C 34797.9 hPa NNE 7.7 km/h 15.6 km/h 95 % 0 mm
09:42 -12 °C -12.5 °C 34808.1 hPa NE 5.1 km/h 18.2 km/h 94 % 0 mm
09:47 -11.9 °C -12.4 °C 34808.1 hPa NNE 12.9 km/h 18.2 km/h 94 % 0 mm
09:52 -11.8 °C -12.3 °C 34808.1 hPa NNE 7.7 km/h 18.2 km/h 94 % 0 mm
09:57 -11.8 °C -12.4 °C 34818.2 hPa North 10.3 km/h 18.2 km/h 93 % 0 mm
10:02 -11.7 °C -12.4 °C 34818.2 hPa NNE 5.1 km/h 20.8 km/h 92 % 0 mm
10:12 -11.6 °C -12.4 °C 34818.2 hPa NE 5.1 km/h 20.8 km/h 91 % 0 mm
10:17 -11.6 °C -12.3 °C 34818.2 hPa NE 12.9 km/h 20.8 km/h 91 % 0 mm
10:22 -11.6 °C -12.3 °C 34818.2 hPa NE 7.7 km/h 18.2 km/h 91 % 0 mm
10:32 -11.5 °C -12.3 °C 34831.8 hPa NNE 15.6 km/h 20.8 km/h 91 % 0 mm
10:37 -11.5 °C -12.3 °C 34831.8 hPa NNE 18.2 km/h 20.8 km/h 91 % 0 mm
10:42 -11.5 °C -12.3 °C 34831.8 hPa NE 20.8 km/h 25.9 km/h 91 % 0 mm
10:47 -11.4 °C -12.2 °C 34831.8 hPa NNE 15.6 km/h 25.9 km/h 91 % 0 mm
10:52 -11.4 °C -12.2 °C 34831.8 hPa NE 10.3 km/h 25.9 km/h 91 % 0 mm
10:57 -11.4 °C -12.3 °C 34831.8 hPa NE 12.9 km/h 25.9 km/h 90 % 0 mm
11:02 -11.4 °C -12.3 °C 34831.8 hPa NE 7.7 km/h 20.8 km/h 90 % 0 mm
11:12 -11.4 °C -12.2 °C 34831.8 hPa North 15.6 km/h 23.3 km/h 91 % 0 mm
11:17 -11.4 °C -12.2 °C 34841.9 hPa North 15.6 km/h 23.3 km/h 91 % 0 mm
11:22 -11.4 °C -12.3 °C 34841.9 hPa NE 20.8 km/h 25.9 km/h 90 % 0 mm
11:27 -11.4 °C -12.4 °C 34841.9 hPa NE 20.8 km/h 25.9 km/h 89 % 0 mm
11:32 -11.4 °C -12.3 °C 34841.9 hPa NNE 15.6 km/h 31.1 km/h 90 % 0 mm
11:42 -11.4 °C -12.4 °C 34841.9 hPa NE 10.3 km/h 31.1 km/h 89 % 0 mm
11:52 -11.5 °C -12.4 °C 34852.1 hPa North 25.9 km/h 36.2 km/h 89 % 0 mm
11:57 -11.5 °C -12.4 °C 34852.1 hPa NE 20.8 km/h 36.2 km/h 89 % 0 mm
12:02 -11.5 °C -12.4 °C 34852.1 hPa NE 15.6 km/h 33.6 km/h 89 % 0 mm
12:12 -11.5 °C -12.7 °C 34852.1 hPa NE 10.3 km/h 28.5 km/h 87 % 0 mm
12:17 -11.4 °C -12.5 °C 34852.1 hPa NE 25.9 km/h 28.5 km/h 88 % 0 mm
12:22 -11.4 °C -12.6 °C 34852.1 hPa NE 10.3 km/h 25.9 km/h 87 % 0 mm
12:32 -11.3 °C -12.4 °C 34865.6 hPa NE 23.3 km/h 25.9 km/h 87 % 0 mm
12:42 -11.2 °C -12.5 °C 34865.6 hPa ENE 10.3 km/h 28.5 km/h 86 % 0 mm
12:47 -11.2 °C -12.4 °C 34865.6 hPa NE 18.2 km/h 28.5 km/h 87 % 0 mm
12:52 -11.2 °C -12.5 °C 34865.6 hPa NNE 10.3 km/h 28.5 km/h 86 % 0 mm
13:02 -11.2 °C -12.5 °C 34865.6 hPa NE 25.9 km/h 28.5 km/h 85 % 0 mm
13:07 -11.2 °C -12.5 °C 34865.6 hPa NE 20.8 km/h 28.5 km/h 85 % 0 mm
13:12 -11.2 °C -12.5 °C 34865.6 hPa NE 20.8 km/h 33.6 km/h 85 % 0 mm
13:17 -11.2 °C -12.4 °C 34865.6 hPa ENE 10.3 km/h 33.6 km/h 86 % 0 mm
13:22 -11.2 °C -12.5 °C 34865.6 hPa North 10.3 km/h 36.2 km/h 85 % 0 mm
13:37 -11.1 °C -12.4 °C 34865.6 hPa NNE 20.8 km/h 31.1 km/h 85 % 0 mm
13:42 -11.1 °C -12.4 °C 34865.6 hPa NE 12.9 km/h 25.9 km/h 85 % 0 mm
13:47 -11.1 °C -12.4 °C 34865.6 hPa NE 18.2 km/h 25.9 km/h 85 % 0 mm
13:57 -11.1 °C -12.5 °C 34865.6 hPa NE 10.3 km/h 28.5 km/h 84 % 0 mm
14:02 -11.1 °C -12.4 °C 34865.6 hPa East 18.2 km/h 28.5 km/h 85 % 0 mm
14:12 -10.9 °C -12.3 °C 34865.6 hPa NNW 10.3 km/h 23.3 km/h 84 % 0 mm
14:17 -10.8 °C -12.3 °C 34865.6 hPa NE 15.6 km/h 23.3 km/h 84 % 0 mm
14:22 -10.8 °C -12.3 °C 34865.6 hPa ENE 10.3 km/h 28.5 km/h 83 % 0 mm
14:37 -10.7 °C -12.3 °C 34865.6 hPa East 10.3 km/h 31.1 km/h 82 % 0 mm
14:42 -10.7 °C -12.3 °C 34865.6 hPa North 18.2 km/h 23.3 km/h 82 % 0 mm
14:47 -10.7 °C -12.3 °C 34852.1 hPa NE 7.7 km/h 25.9 km/h 82 % 0 mm
14:52 -10.6 °C -12.2 °C 34852.1 hPa NNW 2.6 km/h 25.9 km/h 83 % 0 mm
14:57 -10.6 °C -12.2 °C 34852.1 hPa NE 2.6 km/h 25.9 km/h 83 % 0 mm
15:02 -10.6 °C -12.2 °C 34852.1 hPa NNE 7.7 km/h 25.9 km/h 83 % 0 mm
15:12 -10.6 °C -12.3 °C 34852.1 hPa NE 5.1 km/h 12.9 km/h 82 % 0 mm
15:17 -10.6 °C -12.2 °C 34852.1 hPa East 5.1 km/h 18.2 km/h 82 % 0 mm
15:22 -10.5 °C -12.3 °C 34852.1 hPa NE 5.1 km/h 18.2 km/h 81 % 0 mm
15:27 -10.4 °C -12.1 °C 34852.1 hPa NE 5.1 km/h 18.2 km/h 82 % 0 mm
15:32 -10.4 °C -12.2 °C 34852.1 hPa NE 10.3 km/h 12.9 km/h 81 % 0 mm
15:42 -10.3 °C -12.1 °C 34852.1 hPa East 12.9 km/h 20.8 km/h 81 % 0 mm
15:52 -10.3 °C -12.2 °C 34852.1 hPa NE 10.3 km/h 23.3 km/h 80 % 0 mm
16:02 -10.3 °C -12.2 °C 34852.1 hPa ENE 5.1 km/h 20.8 km/h 80 % 0 mm
16:07 -10.2 °C -12.1 °C 34852.1 hPa NE 10.3 km/h 20.8 km/h 80 % 0 mm
16:17 -10.2 °C -12 °C 34852.1 hPa NNW 2.6 km/h 15.6 km/h 81 % 0 mm
16:22 -10.2 °C -11.8 °C 34852.1 hPa ENE 5.1 km/h 15.6 km/h 82 % 0 mm
16:27 -10.2 °C -11.9 °C 34852.1 hPa NNE 2.6 km/h 15.6 km/h 81 % 0 mm
16:32 -10.1 °C -12 °C 34852.1 hPa NNE 2.6 km/h 15.6 km/h 80 % 0 mm
16:42 -10.1 °C -11.8 °C 34852.1 hPa NE 10.3 km/h 15.6 km/h 81 % 0 mm
16:47 -10.1 °C -11.9 °C 34852.1 hPa NW 5.1 km/h 12.9 km/h 81 % 0 mm
16:52 -10.1 °C -11.9 °C 34852.1 hPa North 7.7 km/h 18.2 km/h 81 % 0 mm
17:02 -10.1 °C -11.9 °C 34852.1 hPa NE 5.1 km/h 18.2 km/h 81 % 0 mm
17:12 -10.2 °C -12.2 °C 34852.1 hPa NNW 7.7 km/h 18.2 km/h 79 % 0 mm
17:17 -10.2 °C -11.9 °C 34865.6 hPa NE 15.6 km/h 20.8 km/h 81 % 0 mm
17:22 -10.2 °C -11.9 °C 34865.6 hPa ENE 10.3 km/h 20.8 km/h 81 % 0 mm
17:27 -10.2 °C -12.1 °C 34852.1 hPa NNE 7.7 km/h 20.8 km/h 80 % 0 mm
17:32 -10.2 °C -12.2 °C 34865.6 hPa NE 15.6 km/h 23.3 km/h 79 % 0 mm
17:42 -10.1 °C -12 °C 34865.6 hPa NNE 7.7 km/h 23.3 km/h 80 % 0 mm
17:47 -10.1 °C -12 °C 34865.6 hPa ENE 5.1 km/h 20.8 km/h 80 % 0 mm
17:52 -10.2 °C -12 °C 34865.6 hPa NE 2.6 km/h 18.2 km/h 81 % 0 mm
17:57 -10.2 °C -12 °C 34865.6 hPa Calm   12.9 km/h 81 % 0 mm
18:02 -10.3 °C -12 °C 34865.6 hPa Calm   15.6 km/h 82 % 0 mm
18:12 -10.4 °C -12 °C 34865.6 hPa Calm   15.6 km/h 83 % 0 mm
18:17 -10.4 °C -12 °C 34875.8 hPa Calm   10.3 km/h 83 % 0 mm
18:32 -10.6 °C -12.1 °C 34875.8 hPa North 2.6 km/h 2.6 km/h 84 % 0 mm
18:37 -10.6 °C -12.2 °C 34889.3 hPa Calm   2.6 km/h 83 % 0 mm
18:42 -10.6 °C -12.1 °C 34889.3 hPa Calm   2.6 km/h 84 % 0 mm
18:47 -10.6 °C -12 °C 34889.3 hPa Calm   2.6 km/h 85 % 0 mm
18:57 -10.7 °C -12.1 °C 34889.3 hPa Calm   2.6 km/h 85 % 0 mm
19:02 -10.7 °C -11.9 °C 34889.3 hPa Calm   2.6 km/h 86 % 0 mm
19:12 -10.7 °C -12.1 °C 34899.5 hPa NNW 2.6 km/h   85 % 0 mm
19:17 -10.6 °C -12 °C 34899.5 hPa North 2.6 km/h 2.6 km/h 85 % 0 mm
19:22 -10.6 °C -11.9 °C 34899.5 hPa North 2.6 km/h 5.1 km/h 86 % 0 mm
19:27 -10.6 °C -11.8 °C 34899.5 hPa NNE 5.1 km/h 10.3 km/h 87 % 0 mm
19:37 -10.6 °C -11.7 °C 34909.7 hPa NNE 7.7 km/h 10.3 km/h 88 % 0 mm
19:42 -10.6 °C -11.7 °C 34909.7 hPa NNE 2.6 km/h 10.3 km/h 88 % 0 mm
19:52 -10.7 °C -11.7 °C 34909.7 hPa NNE 10.3 km/h 10.3 km/h 88 % 0 mm
19:57 -10.7 °C -11.7 °C 34909.7 hPa NNE 10.3 km/h 10.3 km/h 88 % 0 mm
20:02 -10.7 °C -11.7 °C 34909.7 hPa ENE 2.6 km/h 12.9 km/h 88 % 0 mm
20:12 -10.7 °C -11.7 °C 34909.7 hPa North 5.1 km/h 12.9 km/h 89 % 0 mm
20:17 -10.7 °C -11.7 °C 34923.2 hPa NNW 2.6 km/h 15.6 km/h 89 % 0 mm
20:22 -10.7 °C -11.7 °C 34923.2 hPa NNW 10.3 km/h 18.2 km/h 89 % 0 mm
20:27 -10.8 °C -11.7 °C 34923.2 hPa NW 5.1 km/h 18.2 km/h 90 % 0 mm
20:32 -10.8 °C -11.7 °C 34923.2 hPa NNE 7.7 km/h 25.9 km/h 90 % 0 mm
20:37 -10.9 °C -11.8 °C 34923.2 hPa NW 10.3 km/h 25.9 km/h 90 % 0 mm
20:42 -10.9 °C -11.7 °C 34923.2 hPa NE 5.1 km/h 25.9 km/h 91 % 0 mm
20:47 -11 °C -11.8 °C 34923.2 hPa North 15.6 km/h 23.3 km/h 91 % 0 mm
20:52 -11.1 °C -11.9 °C 34933.4 hPa North 20.8 km/h 23.3 km/h 91 % 0 mm
20:57 -11.3 °C -12.1 °C 34933.4 hPa NNW 10.3 km/h 33.6 km/h 91 % 0 mm
21:02 -11.3 °C -12.1 °C 34933.4 hPa North 18.2 km/h 33.6 km/h 91 % 0 mm
21:12 -11.5 °C -12.2 °C 34933.4 hPa North 12.9 km/h 33.6 km/h 92 % 0 mm
21:17 -11.6 °C -12.3 °C 34933.4 hPa North 10.3 km/h 33.6 km/h 92 % 0 mm
21:22 -11.6 °C -12.2 °C 34933.4 hPa NNW 10.3 km/h 33.6 km/h 93 % 0 mm
21:27 -11.7 °C -12.3 °C 34933.4 hPa NNE 12.9 km/h 33.6 km/h 93 % 0 mm
21:32 -11.7 °C -12.3 °C 34933.4 hPa North 15.6 km/h 23.3 km/h 93 % 0 mm
21:42 -11.8 °C -12.3 °C 34933.4 hPa NNW 7.7 km/h 25.9 km/h 94 % 0 mm
21:47 -11.8 °C -12.3 °C 34946.9 hPa NNW 10.3 km/h 25.9 km/h 94 % 0 mm
21:52 -11.8 °C -12.3 °C 34946.9 hPa North 12.9 km/h 20.8 km/h 94 % 0 mm
21:57 -11.8 °C -12.3 °C 34946.9 hPa North 5.1 km/h 23.3 km/h 94 % 0 mm
22:02 -11.9 °C -12.4 °C 34946.9 hPa NNE 12.9 km/h 23.3 km/h 94 % 0 mm
22:12 -12 °C -12.5 °C 34946.9 hPa Calm   25.9 km/h 94 % 0 mm
22:17 -12.1 °C -12.6 °C 34946.9 hPa North 5.1 km/h 25.9 km/h 94 % 0 mm
22:22 -12.1 °C -12.5 °C 34946.9 hPa NNW 12.9 km/h 18.2 km/h 95 % 0 mm
22:32 -12.2 °C -12.6 °C 34946.9 hPa NNE 15.6 km/h 15.6 km/h 95 % 0 mm
22:37 -12.2 °C -12.6 °C 34946.9 hPa North 12.9 km/h 18.2 km/h 95 % 0 mm
22:47 -12.3 °C -12.7 °C 34957.1 hPa NE 10.3 km/h 18.2 km/h 95 % 0 mm
22:52 -12.3 °C -12.8 °C 34957.1 hPa North 10.3 km/h 18.2 km/h 95 % 0 mm
22:57 -12.3 °C -12.8 °C 34957.1 hPa NNE 10.3 km/h 23.3 km/h 95 % 0 mm
23:02 -12.3 °C -12.7 °C 34957.1 hPa North 7.7 km/h 23.3 km/h 96 % 0 mm
23:12 -12.3 °C -12.6 °C 34967.2 hPa NE 12.9 km/h 20.8 km/h 96 % 0 mm
23:22 -12.2 °C -12.6 °C 34967.2 hPa North 7.7 km/h 20.8 km/h 96 % 0 mm
23:32 -12.2 °C -12.6 °C 34967.2 hPa NNE 12.9 km/h 20.8 km/h 96 % 0 mm
23:42 -12.2 °C -12.6 °C 34980.8 hPa NNW 10.3 km/h 20.8 km/h 96 % 0 mm
23:47 -12.3 °C -12.6 °C 34980.8 hPa NNE 12.9 km/h 25.9 km/h 96 % 0 mm
23:52 -12.3 °C -12.6 °C 34980.8 hPa NNE 2.6 km/h 25.9 km/h 96 % 0 mm
Meteo18
Compliments of Weather Underground - 4 mb

Script developed by  Jim McMurry - jmcmurry@mwt.net Adapted for the template by  Wim van der Kuil - Leuven-Template.eu

You find our weather info also at:

European Weather Network

Weather Underground

Equipment we use:

Weather-station
Davis Vue

Weather-program
Meteobridge

Weather-server
Raspberry PI 2 B+

Provider
1 and 1

Davis Vue

Meteobridge

Raspberry PI 2 B+

1 and 1